Flag for Indonesia Weather past 2 weeks in Makassar, South Sulawesi, Indonesia

Now
81 °F

Passing clouds.


Feels Like: 81 °F
Forecast: 78 / 91 °F
Wind: 5 mph from East

Location: Ujung Pandang / Hasanuddin

Current Time: Sep 2, 2015 at 9:29:36 PM

Latest Report: Sep 2, 2015 at 9:00 PM


Visibility: 5 mi

Pressure: 29.92 "Hg

Humidity: 45%

Dew point: 57 °F

Location of MakassarLocation

Historic Weather in Makassar — Graph

°F

Makassar temperature yesterday

Maximum temperature yesterday: 91 °F (at 12:30 PM)
Minimum temperature yesterday: 66 °F (at 5:30 AM)
Average temperature yesterday: 80 °F

Past Weeks' High & Low Weather Summary

 TemperatureHumidityPressure
High97 °F (Aug 29, 1:30 PM)100% (Aug 27, 5:30 AM)29.95 "Hg (Aug 27, 5:30 AM)
Low66 °F (Aug 30, 6:30 AM)28% (Aug 29, 2:00 PM)29.77 "Hg (Aug 25, 3:00 PM)
Average82 °F63%29.88 "Hg
* Reported Aug 18 8:00 PM — Sep 2 8:00 PM, Makassar, Weather by CustomWeather, © 2015

Note: Actual official high and low records may vary slightly from our data, if they occured in-between our weather recording intervals... More about our weather records

Advertising

Makassar weather history for previous 24 hours

 ConditionsComfort  
Time TempWeatherWind HumidityBarometerVisibility
8:00 PM
Wed, Sep 2
84 °FPassing clouds.7 mph40%29.89 "Hg5 mi
7:00 PM86 °FClear.8 mph55%29.86 "Hg5 mi
6:30 PM88 °FClear.7 mph49%29.86 "Hg6 mi
6:00 PM90 °FSunny.7 mph38%29.86 "Hg10 mi
5:30 PM91 °FPassing clouds.7 mph36%29.83 "HgN/A
5:00 PM91 °FPassing clouds.8 mph38%29.83 "HgN/A
4:30 PM91 °FPassing clouds.9 mph36%29.83 "HgN/A
4:00 PM91 °FPassing clouds.9 mph36%29.83 "HgN/A
3:30 PM91 °FPassing clouds.9 mph36%29.83 "HgN/A
3:00 PM93 °FPassing clouds.8 mph36%29.83 "HgN/A
2:30 PM91 °FPassing clouds.9 mph38%29.83 "HgN/A
2:00 PM93 °FPassing clouds.12 mph34%29.83 "HgN/A
1:30 PM91 °FPassing clouds.12 mph38%29.83 "HgN/A
1:00 PM93 °FPassing clouds.12 mph41%29.86 "HgN/A
12:30 PM91 °FPassing clouds.13 mph44%29.86 "HgN/A
11:30 AM93 °FPassing clouds.7 mph28%29.89 "HgN/A
11:00 AM91 °FPassing clouds.5 mph34%29.89 "HgN/A
10:30 AM90 °FPassing clouds.3 mph36%29.92 "HgN/A
10:00 AM90 °FPassing clouds.5 mph38%29.92 "HgN/A
9:30 AM86 °FPassing clouds.3 mph49%29.95 "HgN/A
9:00 AM86 °FPassing clouds.3 mph52%29.92 "HgN/A
8:30 AM84 °FPassing clouds.3 mph62%29.92 "Hg6 mi
8:00 AM82 °FPassing clouds.2 mph62%29.92 "Hg6 mi
7:30 AM79 °FPassing clouds.No wind65%29.92 "Hg6 mi
7:00 AM73 °FPassing clouds.1 mph83%29.92 "HgN/A
6:30 AM70 °FPassing clouds.3 mph88%29.92 "Hg5 mi
5:30 AM70 °FPassing clouds.2 mph88%29.92 "Hg5 mi
5:00 AM72 °FPassing clouds.No wind83%29.89 "Hg5 mi
4:30 AM72 °FPassing clouds.5 mph83%29.89 "Hg5 mi
4:00 AM72 °FPassing clouds.5 mph83%29.89 "Hg5 mi
3:30 AM72 °FPassing clouds.5 mph83%29.89 "Hg5 mi
3:00 AM72 °FPassing clouds.6 mph88%29.89 "Hg5 mi
2:30 AM72 °FPassing clouds.3 mph88%29.89 "Hg5 mi
2:00 AM73 °FPassing clouds.3 mph78%29.89 "Hg5 mi
1:00 AM75 °FPassing clouds.5 mph74%29.92 "Hg5 mi
12:30 AM75 °FPassing clouds.2 mph74%29.92 "Hg5 mi
12:00 AM73 °FPassing clouds.2 mph78%29.92 "Hg5 mi
11:00 PM
Tue, Sep 1
75 °FPassing clouds.2 mph69%29.92 "Hg5 mi
10:30 PM77 °FPassing clouds.2 mph69%29.92 "Hg5 mi
10:00 PM79 °FPassing clouds.2 mph65%29.92 "Hg5 mi
9:30 PM79 °FPassing clouds.2 mph65%29.89 "Hg5 mi
9:00 PM81 °FPassing clouds.5 mph58%29.89 "Hg5 mi
Weather by CustomWeather, © 2015

See weather overviewHow to use our weather pages